TPC346 LICJ-LIRQ

Flight info

Callsign TPC346
Flight time N/A
Altitude 15000
Route GIANO DCT RONAB DCT ELB L12 MAREL
Aircraft DA42/L-SBDGRY/S

Departure

Time 2026-05-01 15:02
Airport Falcone–Borsellino Airport (LICJ)

Arrival

Time N/A
Airport Florence Airport, Peretola (LIRQ)
Time Latitude Longitude Altitude Speed Heading
2026-05-01 15:02 38.20751 13.18503 3598 ft 84 kts 62°
2026-05-01 15:02 38.21087 13.19418 3976 ft 84 kts 51°
2026-05-01 15:02 38.21527 13.19900 4259 ft 84 kts 26°
2026-05-01 15:03 38.22051 13.20186 4582 ft 80 kts 22°
2026-05-01 15:03 38.22565 13.20460 4877 ft 81 kts 22°
2026-05-01 15:03 38.23084 13.20735 5178 ft 80 kts 21°
2026-05-01 15:03 38.23601 13.21009 5479 ft 81 kts 21°
2026-05-01 15:04 38.24133 13.21291 5771 ft 83 kts 20°
2026-05-01 15:04 38.24667 13.21575 6067 ft 85 kts 20°
2026-05-01 15:04 38.25218 13.21868 6347 ft 86 kts 20°
2026-05-01 15:04 38.25762 13.22157 6649 ft 84 kts 19°
2026-05-01 15:05 38.26307 13.22446 6906 ft 86 kts 18°
2026-05-01 15:05 38.26855 13.22737 7181 ft 86 kts 18°
2026-05-01 15:05 38.27411 13.23033 7454 ft 88 kts 18°
2026-05-01 15:05 38.27974 13.23333 7750 ft 88 kts 17°
2026-05-01 15:06 38.28544 13.23635 8033 ft 89 kts 17°
2026-05-01 15:06 38.29120 13.23942 8313 ft 89 kts 16°
2026-05-01 15:06 38.29694 13.24247 8597 ft 90 kts 16°
2026-05-01 15:06 38.30272 13.24555 8879 ft 90 kts 15°
2026-05-01 15:07 38.30855 13.24865 9168 ft 91 kts 15°
2026-05-01 15:07 38.31440 13.25177 9457 ft 91 kts 14°
2026-05-01 15:07 38.32029 13.25490 9745 ft 92 kts 14°
2026-05-01 15:07 38.32620 13.25805 10029 ft 92 kts 14°
2026-05-01 15:08 38.33212 13.26121 10299 ft 92 kts 13°
2026-05-01 15:08 38.33805 13.26437 10558 ft 92 kts 13°
2026-05-01 15:08 38.34391 13.26749 10814 ft 93 kts 12°
2026-05-01 15:08 38.34986 13.27066 11074 ft 93 kts 12°
2026-05-01 15:09 38.35585 13.27385 11341 ft 93 kts 11°
2026-05-01 15:09 38.36186 13.27705 11615 ft 94 kts 11°
2026-05-01 15:09 38.36788 13.28027 11910 ft 94 kts 10°
2026-05-01 15:09 38.37388 13.28347 12189 ft 94 kts
2026-05-01 15:10 38.37990 13.28668 12464 ft 94 kts
2026-05-01 15:10 38.39198 13.29312 13018 ft 95 kts
2026-05-01 15:10 38.39806 13.29636 13295 ft 95 kts
2026-05-01 15:11 38.40414 13.29894 13569 ft 90 kts 355°
2026-05-01 15:11 38.41554 13.29714 14127 ft 79 kts 329°
2026-05-01 15:11 38.42016 13.29348 14377 ft 78 kts 318°
2026-05-01 15:12 38.42378 13.28844 14635 ft 78 kts 308°
2026-05-01 15:12 38.42987 13.27711 15148 ft 78 kts 307°
2026-05-01 15:12 38.43337 13.27063 15173 ft 99 kts 307°
2026-05-01 15:13 38.44776 13.24387 15168 ft 138 kts 306°
2026-05-01 15:14 38.45898 13.22283 15168 ft 148 kts 306°
2026-05-01 15:14 38.46481 13.21192 15169 ft 150 kts 306°
2026-05-01 15:14 38.47672 13.18965 15171 ft 153 kts 306°
2026-05-01 15:15 38.48878 13.16709 15170 ft 155 kts 306°
2026-05-01 15:15 38.50086 13.14450 15170 ft 155 kts 306°
2026-05-01 15:16 38.51304 13.12169 15155 ft 155 kts 307°
2026-05-01 15:16 38.52523 13.09886 15157 ft 156 kts 306°
2026-05-01 15:17 38.53743 13.07598 15161 ft 156 kts 306°
2026-05-01 15:18 38.55570 13.04167 15161 ft 156 kts 307°
2026-05-01 15:18 38.56181 13.03022 15162 ft 156 kts 306°
2026-05-01 15:19 38.58008 12.99586 15164 ft 156 kts 306°
2026-05-01 15:19 38.59226 12.97295 15163 ft 156 kts 306°
2026-05-01 15:19 38.59830 12.96157 15164 ft 152 kts 306°
2026-05-01 15:20 38.60989 12.93973 15163 ft 145 kts 306°
2026-05-01 15:20 38.61544 12.92927 15161 ft 143 kts 306°
2026-05-01 15:20 38.62100 12.91880 15162 ft 142 kts 306°
2026-05-01 15:21 38.62651 12.90841 15163 ft 141 kts 307°
2026-05-01 15:21 38.63198 12.89809 15162 ft 140 kts 307°
2026-05-01 15:21 38.63744 12.88779 15182 ft 139 kts 307°
2026-05-01 15:21 38.64289 12.87750 15172 ft 140 kts 307°
2026-05-01 15:22 38.64728 12.86921 15176 ft 139 kts 307°
2026-05-01 15:23 38.65182 12.86064 15174 ft 139 kts 307°
2026-05-01 15:23 38.65723 12.85042 15174 ft 139 kts 307°
2026-05-01 15:24 38.66264 12.84019 15175 ft 138 kts 307°
2026-05-01 15:24 38.66804 12.82998 15175 ft 138 kts 307°
2026-05-01 15:24 38.67343 12.81979 15175 ft 138 kts 307°
2026-05-01 15:24 38.67882 12.80960 15175 ft 138 kts 307°
2026-05-01 15:25 38.68420 12.79942 15175 ft 138 kts 307°
2026-05-01 15:25 38.68959 12.78922 15175 ft 138 kts 307°
2026-05-01 15:25 38.69497 12.77904 15178 ft 138 kts 307°
2026-05-01 15:25 38.70029 12.76895 15164 ft 138 kts 308°
2026-05-01 15:26 38.70573 12.75866 15172 ft 138 kts 308°
2026-05-01 15:26 38.71110 12.74847 15170 ft 138 kts 308°
2026-05-01 15:26 38.71641 12.73841 15170 ft 138 kts 308°
2026-05-01 15:26 38.72180 12.72820 15170 ft 138 kts 308°
2026-05-01 15:27 38.72718 12.71799 15173 ft 138 kts 308°
2026-05-01 15:27 38.73256 12.70778 15171 ft 138 kts 308°
2026-05-01 15:27 38.73794 12.69757 15171 ft 138 kts 308°
2026-05-01 15:28 38.74872 12.67711 15173 ft 138 kts 308°
2026-05-01 15:28 38.75409 12.66690 15173 ft 138 kts 308°
2026-05-01 15:28 38.75948 12.65666 15172 ft 138 kts 308°
2026-05-01 15:29 38.77026 12.63617 15173 ft 139 kts 308°
2026-05-01 15:29 38.77566 12.62590 15171 ft 139 kts 308°
2026-05-01 15:29 38.78642 12.60542 15175 ft 139 kts 308°
2026-05-01 15:30 38.79719 12.58491 15175 ft 139 kts 308°
2026-05-01 15:31 38.81863 12.54404 15176 ft 138 kts 308°
2026-05-01 15:31 38.82938 12.52353 15176 ft 139 kts 308°
2026-05-01 15:32 38.84014 12.50300 15179 ft 139 kts 308°
2026-05-01 15:32 38.85090 12.48245 15178 ft 139 kts 308°
2026-05-01 15:33 38.86775 12.45237 15179 ft 138 kts 317°
2026-05-01 15:34 38.89274 12.43459 15180 ft 138 kts 334°